Thunderstorms From: 20-05-2018 05:00 Until: 21-05-2018 05:00 warning for: Thunderstorms Level: Yellow info button

Although rather usual in this region, locally or potentially dangerous phenomena are expected. (such as local winds, summer thunderstorms, rising streams or high waves) Be aware and pay attention to the latest weather updates, especially if you carry out activities exposed to weather or close to a stream or shoreline. 


Meteo18 Weather Cam more information Meteo18 Weather Cam


warning for Thunderstorms more information blitzortung!


Rain radar more information rain snow radar


Visit our other weather sites:

Template documentation
and downloads

And another site



Weather Underground History page Text

Daily Summary for January 3, 2018 Units:  Both    English   Metric
« Previous Day
Next Day »
Daily Weekly Monthly Yearly Custom
  High: Low: Average:
Temperature: TemperatureC °F /  -17.8 °C 8.2 °F /  -13.2 °C 10.6 °F /  -11.9 °C
Dew Point: DewpointC °F /  -17.8 °C 5.4 °F /  -14.8 °C 8.3 °F /  -13.2 °C
Humidity: Humidity % 72 % 86 %
Wind Speed: WindSpeedKMH mph /  0 km/h - 21.8 mph /  35.1 km/h
Wind Gust: WindSpeedGustKMH mph /  0 km/h - -
Wind:- - WSW
Pressure: PressurehPa in /  0 hPa 1005.0 in /  34029.3 hPa -
Precipitation: 10.7 in /  271.78 mm    
Historical Graphs
 
 
Tabular Data for January 3, 2018
Time Temperature Dew Point Pressure Wind Wind Speed Wind Gust Humidity Rainfall Rate (Hourly)
TemperatureC °F /  -17.8 °C DewpointC °F /  -17.8 °C PressurehPa in /  0 hPa Calm     Humidity % HourlyPrecipMM in /  0 mm
00:03 11.7 °F /  -11.3 °C 10.9 °F /  -11.7 °C 1013.1 in /  34303.6 hPa WSW 16.3 mph /  26.2 km/h 24.1 mph /  38.8 km/h 95 % 0.0 in /  0 mm
00:09 11.7 °F /  -11.3 °C 10.9 °F /  -11.7 °C 1012.8 in /  34293.4 hPa SW 7.9 mph /  12.7 km/h 27.4 mph /  44.1 km/h 95 % 0.0 in /  0 mm
00:15 11.7 °F /  -11.3 °C 10.8 °F /  -11.8 °C 1012.8 in /  34293.4 hPa West 16.3 mph /  26.2 km/h 30.6 mph /  49.2 km/h 94 % 0.0 in /  0 mm
00:17 11.7 °F /  -11.3 °C 10.8 °F /  -11.8 °C 1012.8 in /  34293.4 hPa SW 20.9 mph /  33.6 km/h 24.1 mph /  38.8 km/h 94 % 0.0 in /  0 mm
00:23 11.6 °F /  -11.3 °C 10.8 °F /  -11.8 °C 1012.4 in /  34279.9 hPa West 16.3 mph /  26.2 km/h 32.2 mph /  51.8 km/h 95 % 0.0 in /  0 mm
00:29 11.7 °F /  -11.3 °C 10.8 °F /  -11.8 °C 1012.4 in /  34279.9 hPa SSW 16.3 mph /  26.2 km/h 27.4 mph /  44.1 km/h 94 % 0.0 in /  0 mm
00:35 11.7 °F /  -11.3 °C 10.8 °F /  -11.8 °C 1012.4 in /  34279.9 hPa SW 16.3 mph /  26.2 km/h 22.5 mph /  36.2 km/h 94 % 0.0 in /  0 mm
00:39 11.7 °F /  -11.3 °C 10.8 °F /  -11.8 °C 1012.1 in /  34269.7 hPa SW 24.1 mph /  38.8 km/h 32.2 mph /  51.8 km/h 94 % 0.0 in /  0 mm
00:45 11.9 °F /  -11.2 °C 10.8 °F /  -11.8 °C 1012.1 in /  34269.7 hPa WSW 24.1 mph /  38.8 km/h 35.4 mph /  57 km/h 93 % 0.0 in /  0 mm
00:51 11.8 °F /  -11.2 °C 10.9 °F /  -11.7 °C 1012.4 in /  34279.9 hPa WSW 28.8 mph /  46.3 km/h 43.4 mph /  69.8 km/h 94 % 0.0 in /  0 mm
00:57 11.8 °F /  -11.2 °C 10.9 °F /  -11.7 °C 1012.4 in /  34279.9 hPa WSW 20.9 mph /  33.6 km/h 29.0 mph /  46.7 km/h 94 % 0.0 in /  0 mm
01:01 11.8 °F /  -11.2 °C 10.9 °F /  -11.7 °C 1012.4 in /  34279.9 hPa West 25.9 mph /  41.7 km/h 27.4 mph /  44.1 km/h 94 % 0.0 in /  0 mm
01:07 11.7 °F /  -11.3 °C 10.8 °F /  -11.8 °C 1012.1 in /  34269.7 hPa West 27.4 mph /  44.1 km/h 37.0 mph /  59.5 km/h 94 % 0.0 in /  0 mm
01:13 11.7 °F /  -11.3 °C 10.8 °F /  -11.8 °C 1011.7 in /  34256.2 hPa SSW 30.6 mph /  49.2 km/h 45.1 mph /  72.6 km/h 94 % 0.0 in /  0 mm
01:19 11.8 °F /  -11.2 °C 10.9 °F /  -11.7 °C 1011.7 in /  34256.2 hPa SW 20.9 mph /  33.6 km/h 33.8 mph /  54.4 km/h 94 % 0.0 in /  0 mm
01:25 11.8 °F /  -11.2 °C 10.9 °F /  -11.7 °C 1011.7 in /  34256.2 hPa SW 16.3 mph /  26.2 km/h 30.6 mph /  49.2 km/h 94 % 0.0 in /  0 mm
01:31 11.8 °F /  -11.2 °C 10.9 °F /  -11.7 °C 1011.7 in /  34256.2 hPa SW 16.3 mph /  26.2 km/h 35.4 mph /  57 km/h 94 % 0.0 in /  0 mm
01:37 11.8 °F /  -11.2 °C 10.9 °F /  -11.7 °C 1011.4 in /  34246 hPa SW 22.7 mph /  36.5 km/h 43.4 mph /  69.8 km/h 94 % 0.0 in /  0 mm
01:43 11.8 °F /  -11.2 °C 10.9 °F /  -11.7 °C 1011.1 in /  34235.8 hPa SSW 16.3 mph /  26.2 km/h 30.6 mph /  49.2 km/h 94 % 0.0 in /  0 mm
01:49 11.7 °F /  -11.3 °C 10.8 °F /  -11.8 °C 1011.1 in /  34235.8 hPa SW 24.1 mph /  38.8 km/h 40.2 mph /  64.7 km/h 94 % 0.0 in /  0 mm
01:55 11.7 °F /  -11.3 °C 10.9 °F /  -11.7 °C 1010.7 in /  34222.3 hPa SW 25.9 mph /  41.7 km/h 35.4 mph /  57 km/h 95 % 0.0 in /  0 mm
02:01 11.6 °F /  -11.3 °C 10.8 °F /  -11.8 °C 1010.7 in /  34222.3 hPa SW 16.3 mph /  26.2 km/h 37.0 mph /  59.5 km/h 95 % 0.0 in /  0 mm
02:13 11.7 °F /  -11.3 °C 11.1 °F /  -11.6 °C 1010.4 in /  34212.1 hPa SW 27.4 mph /  44.1 km/h 32.2 mph /  51.8 km/h 96 % 0.0 in /  0 mm
02:19 11.7 °F /  -11.3 °C 11.1 °F /  -11.6 °C 1010.0 in /  34198.6 hPa WSW 20.9 mph /  33.6 km/h 45.1 mph /  72.6 km/h 96 % 0.0 in /  0 mm
02:25 11.7 °F /  -11.3 °C 11.1 °F /  -11.6 °C 1010.0 in /  34198.6 hPa West 33.8 mph /  54.4 km/h 45.1 mph /  72.6 km/h 96 % 0.0 in /  0 mm
02:31 11.8 °F /  -11.2 °C 11.2 °F /  -11.6 °C 1009.7 in /  34188.4 hPa SW 25.9 mph /  41.7 km/h 33.8 mph /  54.4 km/h 96 % 0.0 in /  0 mm
02:35 11.8 °F /  -11.2 °C 11.2 °F /  -11.6 °C 1009.7 in /  34188.4 hPa West 22.7 mph /  36.5 km/h 41.8 mph /  67.3 km/h 96 % 0.0 in /  0 mm
02:41 11.9 °F /  -11.2 °C 11.1 °F /  -11.6 °C 1009.4 in /  34178.3 hPa SW 22.7 mph /  36.5 km/h 43.4 mph /  69.8 km/h 95 % 0.0 in /  0 mm
02:47 12.1 °F /  -11.1 °C 11.3 °F /  -11.5 °C 1009.4 in /  34178.3 hPa West 25.9 mph /  41.7 km/h 40.2 mph /  64.7 km/h 95 % 0.0 in /  0 mm
02:53 12.1 °F /  -11.1 °C 11.3 °F /  -11.5 °C 1009.0 in /  34164.7 hPa SW 20.9 mph /  33.6 km/h 40.2 mph /  64.7 km/h 95 % 0.0 in /  0 mm
02:59 12.2 °F /  -11 °C 11.4 °F /  -11.4 °C 1009.0 in /  34164.7 hPa SW 20.9 mph /  33.6 km/h 40.2 mph /  64.7 km/h 95 % 0.3 in /  7.62 mm
03:05 12.3 °F /  -10.9 °C 11.5 °F /  -11.4 °C 1009.0 in /  34164.7 hPa SW 25.9 mph /  41.7 km/h 46.7 mph /  75.2 km/h 95 % 0.3 in /  7.62 mm
03:11 12.3 °F /  -10.9 °C 11.5 °F /  -11.4 °C 1009.0 in /  34164.7 hPa WSW 38.5 mph /  62 km/h 46.7 mph /  75.2 km/h 95 % 0.3 in /  7.62 mm
03:17 12.3 °F /  -10.9 °C 11.5 °F /  -11.4 °C 1008.7 in /  34154.6 hPa West 30.6 mph /  49.2 km/h 35.4 mph /  57 km/h 95 % 0.3 in /  7.62 mm
03:23 12.3 °F /  -10.9 °C 11.5 °F /  -11.4 °C 1008.4 in /  34144.4 hPa WSW 53.3 mph /  85.8 km/h 57.9 mph /  93.2 km/h 95 % 0.3 in /  7.62 mm
03:27 12.4 °F /  -10.9 °C 11.6 °F /  -11.3 °C 1008.4 in /  34144.4 hPa West 22.7 mph /  36.5 km/h 37.0 mph /  59.5 km/h 95 % 0.3 in /  7.62 mm
03:33 12.4 °F /  -10.9 °C 11.6 °F /  -11.3 °C 1008.4 in /  34144.4 hPa SW 19.5 mph /  31.4 km/h 46.7 mph /  75.2 km/h 95 % 0.5 in /  12.7 mm
03:39 12.4 °F /  -10.9 °C 11.6 °F /  -11.3 °C 1008.4 in /  34144.4 hPa SW 33.8 mph /  54.4 km/h 41.8 mph /  67.3 km/h 95 % 0.5 in /  12.7 mm
03:45 12.4 °F /  -10.9 °C 11.6 °F /  -11.3 °C 1008.4 in /  34144.4 hPa South 16.3 mph /  26.2 km/h 40.2 mph /  64.7 km/h 95 % 0.5 in /  12.7 mm
03:51 12.4 °F /  -10.9 °C 11.6 °F /  -11.3 °C 1008.4 in /  34144.4 hPa West 30.6 mph /  49.2 km/h 59.5 mph /  95.8 km/h 95 % 0.5 in /  12.7 mm
03:57 12.4 °F /  -10.9 °C 11.8 °F /  -11.2 °C 1008.0 in /  34130.9 hPa WSW 27.4 mph /  44.1 km/h 43.4 mph /  69.8 km/h 96 % 0.5 in /  12.7 mm
04:03 12.5 °F /  -10.8 °C 11.9 °F /  -11.2 °C 1007.7 in /  34120.7 hPa West 19.5 mph /  31.4 km/h 33.8 mph /  54.4 km/h 96 % 0.3 in /  7.62 mm
04:09 12.6 °F /  -10.8 °C 11.8 °F /  -11.2 °C 1007.3 in /  34107.2 hPa SW 40.4 mph /  65 km/h 48.3 mph /  77.7 km/h 95 % 0.3 in /  7.62 mm
04:17 12.6 °F /  -10.8 °C 11.8 °F /  -11.2 °C 1007.0 in /  34097 hPa SW 24.1 mph /  38.8 km/h 43.4 mph /  69.8 km/h 95 % 0.5 in /  12.7 mm
04:23 12.7 °F /  -10.7 °C 11.9 °F /  -11.2 °C 1007.0 in /  34097 hPa WSW 17.7 mph /  28.5 km/h 49.9 mph /  80.3 km/h 95 % 0.5 in /  12.7 mm
04:29 12.7 °F /  -10.7 °C 11.9 °F /  -11.2 °C 1007.0 in /  34097 hPa SW 33.8 mph /  54.4 km/h 49.9 mph /  80.3 km/h 95 % 0.5 in /  12.7 mm
04:35 12.7 °F /  -10.7 °C 11.9 °F /  -11.2 °C 1006.7 in /  34086.9 hPa SW 27.4 mph /  44.1 km/h 43.4 mph /  69.8 km/h 95 % 0.5 in /  12.7 mm
04:41 12.7 °F /  -10.7 °C 11.9 °F /  -11.2 °C 1006.3 in /  34073.3 hPa SW 41.7 mph /  67.1 km/h 54.7 mph /  88 km/h 95 % 0.5 in /  12.7 mm
04:47 12.8 °F /  -10.7 °C 12.0 °F /  -11.1 °C 1006.3 in /  34073.3 hPa SW 32.0 mph /  51.5 km/h 46.7 mph /  75.2 km/h 95 % 0.5 in /  12.7 mm
04:53 12.8 °F /  -10.7 °C 12.0 °F /  -11.1 °C 1006.3 in /  34073.3 hPa WSW 37.0 mph /  59.5 km/h 59.5 mph /  95.8 km/h 95 % 0.5 in /  12.7 mm
04:59 12.8 °F /  -10.7 °C 12.0 °F /  -11.1 °C 1006.3 in /  34073.3 hPa WSW 30.6 mph /  49.2 km/h 46.7 mph /  75.2 km/h 95 % 0.8 in /  20.32 mm
05:05 12.9 °F /  -10.6 °C 12.1 °F /  -11.1 °C 1006.3 in /  34073.3 hPa SW 32.0 mph /  51.5 km/h 38.6 mph /  62.1 km/h 95 % 0.8 in /  20.32 mm
05:17 12.9 °F /  -10.6 °C 12.1 °F /  -11.1 °C 1006.3 in /  34073.3 hPa WSW 45.1 mph /  72.6 km/h 45.1 mph /  72.6 km/h 95 % 0.8 in /  20.32 mm
05:23 13.0 °F /  -10.6 °C 12.2 °F /  -11 °C 1006.0 in /  34063.2 hPa SW 32.0 mph /  51.5 km/h 46.7 mph /  75.2 km/h 95 % 0.5 in /  12.7 mm
05:29 13.0 °F /  -10.6 °C 12.2 °F /  -11 °C 1005.6 in /  34049.6 hPa West 25.9 mph /  41.7 km/h 38.6 mph /  62.1 km/h 95 % 0.8 in /  20.32 mm
05:35 13.1 °F /  -10.5 °C 12.3 °F /  -10.9 °C 1005.6 in /  34049.6 hPa WSW 28.8 mph /  46.3 km/h 40.2 mph /  64.7 km/h 95 % 0.8 in /  20.32 mm
05:41 13.1 °F /  -10.5 °C 12.3 °F /  -10.9 °C 1005.6 in /  34049.6 hPa SW 24.1 mph /  38.8 km/h 38.6 mph /  62.1 km/h 95 % 0.5 in /  12.7 mm
05:47 13.1 °F /  -10.5 °C 12.3 °F /  -10.9 °C 1005.3 in /  34039.5 hPa SW 24.1 mph /  38.8 km/h 51.5 mph /  82.9 km/h 95 % 0.5 in /  12.7 mm
05:53 13.2 °F /  -10.4 °C 12.4 °F /  -10.9 °C 1005.0 in /  34029.3 hPa WSW 40.4 mph /  65 km/h 56.3 mph /  90.6 km/h 95 % 0.8 in /  20.32 mm
05:59 13.4 °F /  -10.3 °C 12.5 °F /  -10.8 °C 1005.0 in /  34029.3 hPa WSW 45.1 mph /  72.6 km/h 48.3 mph /  77.7 km/h 94 % 0.5 in /  12.7 mm
06:05 13.4 °F /  -10.3 °C 12.5 °F /  -10.8 °C 1005.0 in /  34029.3 hPa SW 38.5 mph /  62 km/h 56.3 mph /  90.6 km/h 94 % 0.5 in /  12.7 mm
06:11 13.7 °F /  -10.2 °C 12.4 °F /  -10.9 °C 1005.0 in /  34029.3 hPa WSW 28.8 mph /  46.3 km/h 61.1 mph /  98.3 km/h 92 % 0.5 in /  12.7 mm
06:17 13.6 °F /  -10.2 °C 12.5 °F /  -10.8 °C 1005.3 in /  34039.5 hPa SW 17.7 mph /  28.5 km/h 38.6 mph /  62.1 km/h 93 % 0.5 in /  12.7 mm
06:23 13.4 °F /  -10.3 °C 12.5 °F /  -10.8 °C 1005.0 in /  34029.3 hPa SW 24.1 mph /  38.8 km/h 49.9 mph /  80.3 km/h 94 % 0.5 in /  12.7 mm
06:29 13.4 °F /  -10.3 °C 12.5 °F /  -10.8 °C 1005.3 in /  34039.5 hPa WSW 48.3 mph /  77.7 km/h 56.3 mph /  90.6 km/h 94 % 0.5 in /  12.7 mm
06:35 13.4 °F /  -10.3 °C 12.5 °F /  -10.8 °C 1005.3 in /  34039.5 hPa SW 35.2 mph /  56.6 km/h 64.4 mph /  103.6 km/h 94 % 0.8 in /  20.32 mm
06:41 13.4 °F /  -10.3 °C 12.5 °F /  -10.8 °C 1005.6 in /  34049.6 hPa NW 24.1 mph /  38.8 km/h 45.1 mph /  72.6 km/h 94 % 0.8 in /  20.32 mm
06:47 13.7 °F /  -10.2 °C 12.3 °F /  -10.9 °C 1005.3 in /  34039.5 hPa West 27.4 mph /  44.1 km/h 45.1 mph /  72.6 km/h 91 % 1.0 in /  25.4 mm
06:53 13.6 °F /  -10.2 °C 12.3 °F /  -10.9 °C 1005.6 in /  34049.6 hPa West 38.5 mph /  62 km/h 49.9 mph /  80.3 km/h 92 % 0.8 in /  20.32 mm
06:59 13.6 °F /  -10.2 °C 11.8 °F /  -11.2 °C 1005.3 in /  34039.5 hPa West 45.1 mph /  72.6 km/h 59.5 mph /  95.8 km/h 89 % 0.8 in /  20.32 mm
07:05 13.7 °F /  -10.2 °C 11.0 °F /  -11.7 °C 1005.0 in /  34029.3 hPa West 53.3 mph /  85.8 km/h 64.4 mph /  103.6 km/h 84 % 0.8 in /  20.32 mm
07:11 13.6 °F /  -10.2 °C 10.6 °F /  -11.9 °C 1005.3 in /  34039.5 hPa WSW 46.8 mph /  75.3 km/h 62.8 mph /  101.1 km/h 82 % 1.0 in /  25.4 mm
07:17 13.3 °F /  -10.4 °C 10.1 °F /  -12.2 °C 1005.3 in /  34039.5 hPa West 38.5 mph /  62 km/h 59.5 mph /  95.8 km/h 81 % 1.0 in /  25.4 mm
07:23 13.2 °F /  -10.4 °C 10.0 °F /  -12.2 °C 1005.6 in /  34049.6 hPa West 51.5 mph /  82.9 km/h 59.5 mph /  95.8 km/h 81 % 0.8 in /  20.32 mm
07:29 12.9 °F /  -10.6 °C 9.7 °F /  -12.4 °C 1006.3 in /  34073.3 hPa West 35.2 mph /  56.6 km/h 46.7 mph /  75.2 km/h 81 % 0.5 in /  12.7 mm
07:35 12.9 °F /  -10.6 °C 9.3 °F /  -12.6 °C 1006.3 in /  34073.3 hPa WSW 40.4 mph /  65 km/h 64.4 mph /  103.6 km/h 79 % 0.5 in /  12.7 mm
07:41 12.8 °F /  -10.7 °C 9.2 °F /  -12.7 °C 1006.3 in /  34073.3 hPa SW 40.4 mph /  65 km/h 53.1 mph /  85.5 km/h 79 % 0.5 in /  12.7 mm
07:47 12.8 °F /  -10.7 °C 8.9 °F /  -12.8 °C 1006.7 in /  34086.9 hPa West 33.8 mph /  54.4 km/h 54.7 mph /  88 km/h 77 % 0.3 in /  7.62 mm
07:53 12.9 °F /  -10.6 °C 8.8 °F /  -12.9 °C 1007.0 in /  34097 hPa WSW 35.2 mph /  56.6 km/h 69.2 mph /  111.4 km/h 76 % 0.3 in /  7.62 mm
07:59 12.8 °F /  -10.7 °C 8.9 °F /  -12.8 °C 1007.3 in /  34107.2 hPa West 38.5 mph /  62 km/h 51.5 mph /  82.9 km/h 77 % 0.3 in /  7.62 mm
08:07 12.7 °F /  -10.7 °C 8.8 °F /  -12.9 °C 1007.3 in /  34107.2 hPa WSW 35.2 mph /  56.6 km/h 41.8 mph /  67.3 km/h 77 % 0.3 in /  7.62 mm
08:13 12.7 °F /  -10.7 °C 8.2 °F /  -13.2 °C 1007.7 in /  34120.7 hPa WSW 45.1 mph /  72.6 km/h 54.7 mph /  88 km/h 74 % 0.0 in /  0 mm
08:19 12.6 °F /  -10.8 °C 8.1 °F /  -13.3 °C 1007.3 in /  34107.2 hPa West 28.8 mph /  46.3 km/h 53.1 mph /  85.5 km/h 74 % 0.0 in /  0 mm
08:27 12.1 °F /  -11.1 °C 8.8 °F /  -12.9 °C 1007.7 in /  34120.7 hPa WSW 19.5 mph /  31.4 km/h 37.0 mph /  59.5 km/h 80 % 0.0 in /  0 mm
08:32 11.9 °F /  -11.2 °C 8.9 °F /  -12.8 °C 1007.3 in /  34107.2 hPa West 25.9 mph /  41.7 km/h 43.4 mph /  69.8 km/h 82 % 0.0 in /  0 mm
08:37 11.8 °F /  -11.2 °C 8.6 °F /  -13 °C 1007.7 in /  34120.7 hPa West 27.4 mph /  44.1 km/h 46.7 mph /  75.2 km/h 81 % 0.0 in /  0 mm
08:43 11.8 °F /  -11.2 °C 8.5 °F /  -13.1 °C 1007.7 in /  34120.7 hPa WSW 25.9 mph /  41.7 km/h 37.0 mph /  59.5 km/h 80 % 0.0 in /  0 mm
08:49 11.9 °F /  -11.2 °C 8.2 °F /  -13.2 °C 1008.4 in /  34144.4 hPa WSW 50.0 mph /  80.5 km/h 57.9 mph /  93.2 km/h 78 % 0.0 in /  0 mm
08:55 11.9 °F /  -11.2 °C 8.2 °F /  -13.2 °C 1008.4 in /  34144.4 hPa WSW 33.8 mph /  54.4 km/h 51.5 mph /  82.9 km/h 78 % 0.0 in /  0 mm
09:01 11.8 °F /  -11.2 °C 7.9 °F /  -13.4 °C 1008.4 in /  34144.4 hPa SW 30.6 mph /  49.2 km/h 56.3 mph /  90.6 km/h 77 % 0.0 in /  0 mm
09:06 11.8 °F /  -11.2 °C 7.9 °F /  -13.4 °C 1008.4 in /  34144.4 hPa West 25.9 mph /  41.7 km/h 54.7 mph /  88 km/h 77 % 0.0 in /  0 mm
09:12 11.6 °F /  -11.3 °C 8.1 °F /  -13.3 °C 1008.7 in /  34154.6 hPa West 38.5 mph /  62 km/h 56.3 mph /  90.6 km/h 79 % 0.0 in /  0 mm
09:18 11.1 °F /  -11.6 °C 8.1 °F /  -13.3 °C 1008.7 in /  34154.6 hPa West 28.8 mph /  46.3 km/h 40.2 mph /  64.7 km/h 82 % 0.3 in /  7.62 mm
09:24 10.7 °F /  -11.8 °C 8.1 °F /  -13.3 °C 1008.7 in /  34154.6 hPa WSW 19.5 mph /  31.4 km/h 33.8 mph /  54.4 km/h 84 % 0.5 in /  12.7 mm
09:30 10.5 °F /  -11.9 °C 8.3 °F /  -13.2 °C 1009.0 in /  34164.7 hPa WNW 19.5 mph /  31.4 km/h 33.8 mph /  54.4 km/h 86 % 0.5 in /  12.7 mm
09:36 10.3 °F /  -12.1 °C 8.4 °F /  -13.1 °C 1009.0 in /  34164.7 hPa West 25.9 mph /  41.7 km/h 30.6 mph /  49.2 km/h 88 % 1.0 in /  25.4 mm
09:52 10.1 °F /  -12.2 °C 7.9 °F /  -13.4 °C 1010.0 in /  34198.6 hPa West 35.2 mph /  56.6 km/h 54.7 mph /  88 km/h 86 % 2.8 in /  71.12 mm
09:58 9.9 °F /  -12.3 °C 7.3 °F /  -13.7 °C 1010.0 in /  34198.6 hPa WNW 28.8 mph /  46.3 km/h 46.7 mph /  75.2 km/h 84 % 2.8 in /  71.12 mm
10:04 9.8 °F /  -12.3 °C 7.2 °F /  -13.8 °C 1010.4 in /  34212.1 hPa WSW 33.8 mph /  54.4 km/h 53.1 mph /  85.5 km/h 84 % 3.0 in /  76.2 mm
10:06 9.8 °F /  -12.3 °C 7.2 °F /  -13.8 °C 1010.0 in /  34198.6 hPa WSW 22.7 mph /  36.5 km/h 53.1 mph /  85.5 km/h 84 % 3.0 in /  76.2 mm
10:12 9.9 °F /  -12.3 °C 7.3 °F /  -13.7 °C 1010.4 in /  34212.1 hPa West 14.3 mph /  23 km/h 41.8 mph /  67.3 km/h 84 % 3.0 in /  76.2 mm
10:18 10.2 °F /  -12.1 °C 7.4 °F /  -13.7 °C 1010.7 in /  34222.3 hPa WNW 27.4 mph /  44.1 km/h 38.6 mph /  62.1 km/h 83 % 2.8 in /  71.12 mm
10:24 10.3 °F /  -12.1 °C 7.2 °F /  -13.8 °C 1010.7 in /  34222.3 hPa West 14.3 mph /  23 km/h 37.0 mph /  59.5 km/h 81 % 2.5 in /  63.5 mm
10:30 10.3 °F /  -12.1 °C 6.6 °F /  -14.1 °C 1010.7 in /  34222.3 hPa West 20.9 mph /  33.6 km/h 38.6 mph /  62.1 km/h 78 % 2.3 in /  58.42 mm
10:36 10.3 °F /  -12.1 °C 6.8 °F /  -14 °C 1011.4 in /  34246 hPa West 24.1 mph /  38.8 km/h 35.4 mph /  57 km/h 79 % 2.3 in /  58.42 mm
10:42 10.2 °F /  -12.1 °C 6.7 °F /  -14.1 °C 1011.7 in /  34256.2 hPa WNW 33.8 mph /  54.4 km/h 35.4 mph /  57 km/h 79 % 1.5 in /  38.1 mm
10:46 10.2 °F /  -12.1 °C 6.5 °F /  -14.2 °C 1011.7 in /  34256.2 hPa WSW 19.5 mph /  31.4 km/h 46.7 mph /  75.2 km/h 78 % 0.8 in /  20.32 mm
10:52 10.2 °F /  -12.1 °C 6.9 °F /  -13.9 °C 1011.4 in /  34246 hPa WSW 22.7 mph /  36.5 km/h 35.4 mph /  57 km/h 80 % 0.5 in /  12.7 mm
10:58 10.2 °F /  -12.1 °C 6.9 °F /  -13.9 °C 1011.7 in /  34256.2 hPa WNW 19.5 mph /  31.4 km/h 29.0 mph /  46.7 km/h 80 % 0.5 in /  12.7 mm
11:04 10.2 °F /  -12.1 °C 6.9 °F /  -13.9 °C 1012.1 in /  34269.7 hPa WSW 22.7 mph /  36.5 km/h 40.2 mph /  64.7 km/h 80 % 0.3 in /  7.62 mm
11:10 10.0 °F /  -12.2 °C 7.2 °F /  -13.8 °C 1012.4 in /  34279.9 hPa West 24.1 mph /  38.8 km/h 33.8 mph /  54.4 km/h 83 % 0.3 in /  7.62 mm
11:20 9.9 °F /  -12.3 °C 6.4 °F /  -14.2 °C 1012.4 in /  34279.9 hPa WNW 30.6 mph /  49.2 km/h 57.9 mph /  93.2 km/h 79 % 0.3 in /  7.62 mm
11:26 9.6 °F /  -12.4 °C 6.5 °F /  -14.2 °C 1012.4 in /  34279.9 hPa West 35.2 mph /  56.6 km/h 40.2 mph /  64.7 km/h 81 % 0.3 in /  7.62 mm
11:32 9.7 °F /  -12.4 °C 6.2 °F /  -14.3 °C 1012.4 in /  34279.9 hPa West 25.9 mph /  41.7 km/h 43.4 mph /  69.8 km/h 79 % 0.3 in /  7.62 mm
11:38 9.8 °F /  -12.3 °C 6.0 °F /  -14.4 °C 1012.8 in /  34293.4 hPa West 20.9 mph /  33.6 km/h 48.3 mph /  77.7 km/h 77 % 0.0 in /  0 mm
11:44 9.8 °F /  -12.3 °C 6.1 °F /  -14.4 °C 1013.1 in /  34303.6 hPa West 22.7 mph /  36.5 km/h 41.8 mph /  67.3 km/h 78 % 0.0 in /  0 mm
11:46 9.8 °F /  -12.3 °C 6.0 °F /  -14.4 °C 1012.8 in /  34293.4 hPa WSW 28.8 mph /  46.3 km/h 30.6 mph /  49.2 km/h 77 % 0.0 in /  0 mm
11:50 10.0 °F /  -12.2 °C 6.0 °F /  -14.4 °C 1012.8 in /  34293.4 hPa WNW 35.2 mph /  56.6 km/h 51.5 mph /  82.9 km/h 76 % 0.0 in /  0 mm
11:56 10.2 °F /  -12.1 °C 6.0 °F /  -14.4 °C 1012.8 in /  34293.4 hPa WNW 20.9 mph /  33.6 km/h 46.7 mph /  75.2 km/h 75 % 0.0 in /  0 mm
12:02 10.1 °F /  -12.2 °C 5.9 °F /  -14.5 °C 1012.8 in /  34293.4 hPa WNW 27.4 mph /  44.1 km/h 32.2 mph /  51.8 km/h 75 % 0.0 in /  0 mm
12:08 10.1 °F /  -12.2 °C 6.1 °F /  -14.4 °C 1012.4 in /  34279.9 hPa WSW 22.7 mph /  36.5 km/h 32.2 mph /  51.8 km/h 76 % 0.0 in /  0 mm
12:14 9.9 °F /  -12.3 °C 6.2 °F /  -14.3 °C 1012.4 in /  34279.9 hPa West 37.0 mph /  59.5 km/h 37.0 mph /  59.5 km/h 78 % 0.0 in /  0 mm
12:18 9.8 °F /  -12.3 °C 6.5 °F /  -14.2 °C 1012.8 in /  34293.4 hPa West 22.7 mph /  36.5 km/h 35.4 mph /  57 km/h 80 % 0.0 in /  0 mm
12:24 9.6 °F /  -12.4 °C 6.7 °F /  -14.1 °C 1013.1 in /  34303.6 hPa SW 27.4 mph /  44.1 km/h 33.8 mph /  54.4 km/h 82 % 0.0 in /  0 mm
12:30 9.5 °F /  -12.5 °C 6.8 °F /  -14 °C 1013.1 in /  34303.6 hPa West 20.9 mph /  33.6 km/h 38.6 mph /  62.1 km/h 83 % 0.0 in /  0 mm
12:46 9.6 °F /  -12.4 °C 6.9 °F /  -13.9 °C 1013.4 in /  34313.7 hPa WSW 11.1 mph /  17.9 km/h 29.0 mph /  46.7 km/h 83 % 0.0 in /  0 mm
12:52 9.6 °F /  -12.4 °C 6.9 °F /  -13.9 °C 1013.8 in /  34327.3 hPa West 11.1 mph /  17.9 km/h 25.7 mph /  41.4 km/h 83 % 0.0 in /  0 mm
12:58 9.7 °F /  -12.4 °C 6.6 °F /  -14.1 °C 1013.4 in /  34313.7 hPa WSW 22.7 mph /  36.5 km/h 30.6 mph /  49.2 km/h 81 % 0.0 in /  0 mm
13:04 9.8 °F /  -12.3 °C 6.3 °F /  -14.3 °C 1013.1 in /  34303.6 hPa West 22.7 mph /  36.5 km/h 41.8 mph /  67.3 km/h 79 % 0.0 in /  0 mm
13:10 9.9 °F /  -12.3 °C 6.2 °F /  -14.3 °C 1013.1 in /  34303.6 hPa West 20.9 mph /  33.6 km/h 37.0 mph /  59.5 km/h 78 % 0.0 in /  0 mm
13:16 10.1 °F /  -12.2 °C 6.3 °F /  -14.3 °C 1013.4 in /  34313.7 hPa West 25.9 mph /  41.7 km/h 35.4 mph /  57 km/h 77 % 0.0 in /  0 mm
13:24 10.1 °F /  -12.2 °C 6.1 °F /  -14.4 °C 1013.1 in /  34303.6 hPa WNW 20.9 mph /  33.6 km/h 37.0 mph /  59.5 km/h 76 % 0.0 in /  0 mm
13:27 10.1 °F /  -12.2 °C 6.1 °F /  -14.4 °C 1013.1 in /  34303.6 hPa West 25.9 mph /  41.7 km/h 37.0 mph /  59.5 km/h 76 % 0.0 in /  0 mm
13:34 10.1 °F /  -12.2 °C 5.9 °F /  -14.5 °C 1013.1 in /  34303.6 hPa West 25.9 mph /  41.7 km/h 45.1 mph /  72.6 km/h 75 % 0.0 in /  0 mm
13:40 10.1 °F /  -12.2 °C 5.9 °F /  -14.5 °C 1013.1 in /  34303.6 hPa North 14.3 mph /  23 km/h 30.6 mph /  49.2 km/h 75 % 0.0 in /  0 mm
13:46 10.2 °F /  -12.1 °C 6.2 °F /  -14.3 °C 1013.4 in /  34313.7 hPa West 14.3 mph /  23 km/h 22.5 mph /  36.2 km/h 76 % 0.0 in /  0 mm
13:52 10.2 °F /  -12.1 °C 5.8 °F /  -14.6 °C 1013.1 in /  34303.6 hPa WNW 27.4 mph /  44.1 km/h 30.6 mph /  49.2 km/h 74 % 0.0 in /  0 mm
13:58 10.2 °F /  -12.1 °C 6.0 °F /  -14.4 °C 1013.1 in /  34303.6 hPa West 27.4 mph /  44.1 km/h 30.6 mph /  49.2 km/h 75 % 0.0 in /  0 mm
14:04 10.3 °F /  -12.1 °C 5.9 °F /  -14.5 °C 1013.1 in /  34303.6 hPa West 19.5 mph /  31.4 km/h 40.2 mph /  64.7 km/h 74 % 0.0 in /  0 mm
14:06 10.3 °F /  -12.1 °C 5.9 °F /  -14.5 °C 1013.4 in /  34313.7 hPa WNW 17.7 mph /  28.5 km/h 41.8 mph /  67.3 km/h 74 % 0.0 in /  0 mm
14:12 10.3 °F /  -12.1 °C 6.1 °F /  -14.4 °C 1013.4 in /  34313.7 hPa West 28.8 mph /  46.3 km/h 33.8 mph /  54.4 km/h 75 % 0.0 in /  0 mm
14:18 10.3 °F /  -12.1 °C 5.7 °F /  -14.6 °C 1013.4 in /  34313.7 hPa WSW 16.3 mph /  26.2 km/h 37.0 mph /  59.5 km/h 73 % 0.0 in /  0 mm
14:28 10.3 °F /  -12.1 °C 5.5 °F /  -14.7 °C 1013.4 in /  34313.7 hPa West 17.7 mph /  28.5 km/h 33.8 mph /  54.4 km/h 72 % 0.0 in /  0 mm
14:34 10.4 °F /  -12 °C 5.6 °F /  -14.7 °C 1013.4 in /  34313.7 hPa West 19.5 mph /  31.4 km/h 25.7 mph /  41.4 km/h 72 % 0.0 in /  0 mm
14:40 10.4 °F /  -12 °C 5.6 °F /  -14.7 °C 1013.4 in /  34313.7 hPa WNW 32.0 mph /  51.5 km/h 33.8 mph /  54.4 km/h 72 % 0.0 in /  0 mm
14:46 10.3 °F /  -12.1 °C 5.5 °F /  -14.7 °C 1013.4 in /  34313.7 hPa West 14.3 mph /  23 km/h 25.7 mph /  41.4 km/h 72 % 0.0 in /  0 mm
14:52 10.3 °F /  -12.1 °C 5.9 °F /  -14.5 °C 1013.8 in /  34327.3 hPa West 17.7 mph /  28.5 km/h 24.1 mph /  38.8 km/h 74 % 0.0 in /  0 mm
15:04 10.2 °F /  -12.1 °C 5.8 °F /  -14.6 °C 1013.8 in /  34327.3 hPa West 14.3 mph /  23 km/h 20.9 mph /  33.6 km/h 74 % 0.0 in /  0 mm
15:10 10.2 °F /  -12.1 °C 5.6 °F /  -14.7 °C 1013.4 in /  34313.7 hPa West 14.3 mph /  23 km/h 27.4 mph /  44.1 km/h 73 % 0.0 in /  0 mm
15:16 10.2 °F /  -12.1 °C 5.8 °F /  -14.6 °C 1013.4 in /  34313.7 hPa West 13.0 mph /  20.9 km/h 25.7 mph /  41.4 km/h 74 % 0.0 in /  0 mm
15:22 10.1 °F /  -12.2 °C 5.7 °F /  -14.6 °C 1013.4 in /  34313.7 hPa WSW 20.9 mph /  33.6 km/h 30.6 mph /  49.2 km/h 74 % 0.0 in /  0 mm
15:24 10.1 °F /  -12.2 °C 5.7 °F /  -14.6 °C 1013.4 in /  34313.7 hPa WSW 13.0 mph /  20.9 km/h 27.4 mph /  44.1 km/h 74 % 0.0 in /  0 mm
15:30 10.1 °F /  -12.2 °C 6.1 °F /  -14.4 °C 1013.8 in /  34327.3 hPa West 13.0 mph /  20.9 km/h 22.5 mph /  36.2 km/h 76 % 0.0 in /  0 mm
15:42 9.9 °F /  -12.3 °C 6.1 °F /  -14.4 °C 1014.1 in /  34337.4 hPa West 13.0 mph /  20.9 km/h 19.3 mph /  31.1 km/h 77 % 0.0 in /  0 mm
15:48 9.8 °F /  -12.3 °C 6.0 °F /  -14.4 °C 1014.1 in /  34337.4 hPa West 7.9 mph /  12.7 km/h 14.5 mph /  23.3 km/h 77 % 0.0 in /  0 mm
15:54 9.8 °F /  -12.3 °C 6.0 °F /  -14.4 °C 1014.1 in /  34337.4 hPa WSW 6.4 mph /  10.3 km/h 17.7 mph /  28.5 km/h 77 % 0.0 in /  0 mm
16:00 9.8 °F /  -12.3 °C 5.6 °F /  -14.7 °C 1014.1 in /  34337.4 hPa West 19.5 mph /  31.4 km/h 25.7 mph /  41.4 km/h 75 % 0.0 in /  0 mm
16:06 9.8 °F /  -12.3 °C 5.4 °F /  -14.8 °C 1014.1 in /  34337.4 hPa WNW 25.9 mph /  41.7 km/h 25.9 mph /  41.7 km/h 74 % 0.0 in /  0 mm
16:12 9.7 °F /  -12.4 °C 5.5 °F /  -14.7 °C 1014.1 in /  34337.4 hPa WNW 19.5 mph /  31.4 km/h 24.1 mph /  38.8 km/h 75 % 0.0 in /  0 mm
16:22 9.7 °F /  -12.4 °C 5.5 °F /  -14.7 °C 1014.1 in /  34337.4 hPa West 13.0 mph /  20.9 km/h 22.5 mph /  36.2 km/h 75 % 0.0 in /  0 mm
16:28 9.7 °F /  -12.4 °C 5.7 °F /  -14.6 °C 1014.4 in /  34347.6 hPa West 11.1 mph /  17.9 km/h 16.1 mph /  25.9 km/h 76 % 0.0 in /  0 mm
16:34 9.6 °F /  -12.4 °C 5.6 °F /  -14.7 °C 1014.4 in /  34347.6 hPa SW 7.9 mph /  12.7 km/h 17.7 mph /  28.5 km/h 76 % 0.0 in /  0 mm
16:40 9.5 °F /  -12.5 °C 5.7 °F /  -14.6 °C 1014.4 in /  34347.6 hPa West 11.1 mph /  17.9 km/h 25.7 mph /  41.4 km/h 77 % 0.0 in /  0 mm
16:46 9.3 °F /  -12.6 °C 5.7 °F /  -14.6 °C 1014.4 in /  34347.6 hPa West 13.0 mph /  20.9 km/h 19.3 mph /  31.1 km/h 78 % 0.0 in /  0 mm
16:52 9.3 °F /  -12.6 °C 5.7 °F /  -14.6 °C 1014.4 in /  34347.6 hPa WSW 20.9 mph /  33.6 km/h 38.6 mph /  62.1 km/h 78 % 0.0 in /  0 mm
16:58 9.2 °F /  -12.7 °C 5.7 °F /  -14.6 °C 1014.4 in /  34347.6 hPa WSW 13.0 mph /  20.9 km/h 22.5 mph /  36.2 km/h 79 % 0.0 in /  0 mm
17:00 9.1 °F /  -12.7 °C 5.7 °F /  -14.6 °C 1014.4 in /  34347.6 hPa West 19.5 mph /  31.4 km/h 24.1 mph /  38.8 km/h 79 % 0.0 in /  0 mm
17:06 9.0 °F /  -12.8 °C 5.7 °F /  -14.6 °C 1014.8 in /  34361.1 hPa West 13.0 mph /  20.9 km/h 22.5 mph /  36.2 km/h 80 % 0.0 in /  0 mm
17:12 8.9 °F /  -12.8 °C 5.8 °F /  -14.6 °C 1014.8 in /  34361.1 hPa West 13.0 mph /  20.9 km/h 25.7 mph /  41.4 km/h 81 % 0.0 in /  0 mm
17:18 8.9 °F /  -12.8 °C 6.0 °F /  -14.4 °C 1014.8 in /  34361.1 hPa West 7.9 mph /  12.7 km/h 22.5 mph /  36.2 km/h 82 % 0.0 in /  0 mm
17:24 8.9 °F /  -12.8 °C 6.0 °F /  -14.4 °C 1014.8 in /  34361.1 hPa West 11.1 mph /  17.9 km/h 22.5 mph /  36.2 km/h 82 % 0.0 in /  0 mm
17:36 8.9 °F /  -12.8 °C 6.0 °F /  -14.4 °C 1014.8 in /  34361.1 hPa SW 19.5 mph /  31.4 km/h 19.5 mph /  31.4 km/h 82 % 0.0 in /  0 mm
17:38 8.9 °F /  -12.8 °C 6.0 °F /  -14.4 °C 1014.8 in /  34361.1 hPa WSW 16.3 mph /  26.2 km/h 19.3 mph /  31.1 km/h 82 % 0.0 in /  0 mm
17:44 8.9 °F /  -12.8 °C 5.8 °F /  -14.6 °C 1014.8 in /  34361.1 hPa West 7.9 mph /  12.7 km/h 16.1 mph /  25.9 km/h 81 % 0.0 in /  0 mm
17:50 8.9 °F /  -12.8 °C 5.8 °F /  -14.6 °C 1014.8 in /  34361.1 hPa WSW 7.9 mph /  12.7 km/h 19.3 mph /  31.1 km/h 81 % 0.0 in /  0 mm
17:58 8.9 °F /  -12.8 °C 5.8 °F /  -14.6 °C 1014.8 in /  34361.1 hPa SW 16.3 mph /  26.2 km/h 19.3 mph /  31.1 km/h 81 % 0.0 in /  0 mm
18:10 8.9 °F /  -12.8 °C 6.0 °F /  -14.4 °C 1014.4 in /  34347.6 hPa SW 16.3 mph /  26.2 km/h 25.7 mph /  41.4 km/h 82 % 0.0 in /  0 mm
18:14 9.0 °F /  -12.8 °C 6.1 °F /  -14.4 °C 1014.4 in /  34347.6 hPa SW 13.0 mph /  20.9 km/h 20.9 mph /  33.6 km/h 82 % 0.0 in /  0 mm
18:20 8.9 °F /  -12.8 °C 6.2 °F /  -14.3 °C 1014.4 in /  34347.6 hPa West 9.7 mph /  15.6 km/h 17.7 mph /  28.5 km/h 83 % 0.0 in /  0 mm
18:26 8.9 °F /  -12.8 °C 6.3 °F /  -14.3 °C 1014.4 in /  34347.6 hPa SW 13.0 mph /  20.9 km/h 19.3 mph /  31.1 km/h 84 % 0.0 in /  0 mm
18:33 8.9 °F /  -12.8 °C 6.3 °F /  -14.3 °C 1014.4 in /  34347.6 hPa SW 13.0 mph /  20.9 km/h 19.3 mph /  31.1 km/h 84 % 0.0 in /  0 mm
18:38 8.8 °F /  -12.9 °C 6.4 °F /  -14.2 °C 1014.8 in /  34361.1 hPa SSW 11.1 mph /  17.9 km/h 17.7 mph /  28.5 km/h 85 % 0.0 in /  0 mm
18:43 8.9 °F /  -12.8 °C 6.5 °F /  -14.2 °C 1014.4 in /  34347.6 hPa SW 17.7 mph /  28.5 km/h 25.7 mph /  41.4 km/h 85 % 0.0 in /  0 mm
18:49 8.9 °F /  -12.8 °C 6.7 °F /  -14.1 °C 1014.4 in /  34347.6 hPa West 14.3 mph /  23 km/h 22.5 mph /  36.2 km/h 86 % 0.0 in /  0 mm
19:01 8.9 °F /  -12.8 °C 6.7 °F /  -14.1 °C 1014.8 in /  34361.1 hPa West 11.1 mph /  17.9 km/h 17.7 mph /  28.5 km/h 86 % 0.0 in /  0 mm
19:07 8.9 °F /  -12.8 °C 6.7 °F /  -14.1 °C 1014.4 in /  34347.6 hPa West 13.0 mph /  20.9 km/h 19.3 mph /  31.1 km/h 86 % 0.0 in /  0 mm
19:11 8.9 °F /  -12.8 °C 6.7 °F /  -14.1 °C 1014.4 in /  34347.6 hPa WSW 13.0 mph /  20.9 km/h 19.3 mph /  31.1 km/h 86 % 0.0 in /  0 mm
19:17 9.0 °F /  -12.8 °C 6.8 °F /  -14 °C 1014.4 in /  34347.6 hPa West 11.1 mph /  17.9 km/h 20.9 mph /  33.6 km/h 86 % 0.0 in /  0 mm
19:25 9.1 °F /  -12.7 °C 6.9 °F /  -13.9 °C 1014.4 in /  34347.6 hPa WSW 13.0 mph /  20.9 km/h 24.1 mph /  38.8 km/h 86 % 0.0 in /  0 mm
19:31 9.1 °F /  -12.7 °C 6.9 °F /  -13.9 °C 1014.4 in /  34347.6 hPa WSW 7.9 mph /  12.7 km/h 17.7 mph /  28.5 km/h 86 % 0.0 in /  0 mm
19:33 9.1 °F /  -12.7 °C 6.9 °F /  -13.9 °C 1014.4 in /  34347.6 hPa WSW 6.4 mph /  10.3 km/h 16.1 mph /  25.9 km/h 86 % 0.0 in /  0 mm
19:39 9.1 °F /  -12.7 °C 7.1 °F /  -13.8 °C 1014.8 in /  34361.1 hPa SW 9.7 mph /  15.6 km/h 16.1 mph /  25.9 km/h 87 % 0.0 in /  0 mm
19:51 8.9 °F /  -12.8 °C 7.0 °F /  -13.9 °C 1014.4 in /  34347.6 hPa SW 9.7 mph /  15.6 km/h 17.7 mph /  28.5 km/h 88 % 0.0 in /  0 mm
19:55 8.9 °F /  -12.8 °C 7.2 °F /  -13.8 °C 1014.4 in /  34347.6 hPa WSW 14.3 mph /  23 km/h 20.9 mph /  33.6 km/h 89 % 0.0 in /  0 mm
20:01 8.9 °F /  -12.8 °C 7.2 °F /  -13.8 °C 1014.4 in /  34347.6 hPa SW 6.4 mph /  10.3 km/h 19.3 mph /  31.1 km/h 89 % 0.0 in /  0 mm
20:13 8.8 °F /  -12.9 °C 7.2 °F /  -13.8 °C 1014.4 in /  34347.6 hPa WSW 9.7 mph /  15.6 km/h 17.7 mph /  28.5 km/h 90 % 0.0 in /  0 mm
20:19 8.8 °F /  -12.9 °C 7.2 °F /  -13.8 °C 1014.4 in /  34347.6 hPa SW 4.7 mph /  7.6 km/h 11.3 mph /  18.2 km/h 90 % 0.0 in /  0 mm
20:25 8.8 °F /  -12.9 °C 7.2 °F /  -13.8 °C 1014.4 in /  34347.6 hPa SW 11.1 mph /  17.9 km/h 14.5 mph /  23.3 km/h 90 % 0.0 in /  0 mm
20:31 8.8 °F /  -12.9 °C 7.4 °F /  -13.7 °C 1014.4 in /  34347.6 hPa WSW 16.3 mph /  26.2 km/h 17.7 mph /  28.5 km/h 91 % 0.0 in /  0 mm
20:37 8.8 °F /  -12.9 °C 7.4 °F /  -13.7 °C 1014.4 in /  34347.6 hPa WSW 9.7 mph /  15.6 km/h 19.3 mph /  31.1 km/h 91 % 0.0 in /  0 mm
20:43 8.9 °F /  -12.8 °C 7.5 °F /  -13.6 °C 1014.4 in /  34347.6 hPa West 9.7 mph /  15.6 km/h 25.7 mph /  41.4 km/h 91 % 0.0 in /  0 mm
20:47 8.9 °F /  -12.8 °C 7.5 °F /  -13.6 °C 1014.4 in /  34347.6 hPa SSW 13.0 mph /  20.9 km/h 17.7 mph /  28.5 km/h 91 % 0.0 in /  0 mm
20:53 8.8 °F /  -12.9 °C 7.6 °F /  -13.6 °C 1014.4 in /  34347.6 hPa SW 17.7 mph /  28.5 km/h 22.5 mph /  36.2 km/h 92 % 0.0 in /  0 mm
20:59 8.8 °F /  -12.9 °C 7.6 °F /  -13.6 °C 1014.4 in /  34347.6 hPa SW 4.7 mph /  7.6 km/h 12.9 mph /  20.8 km/h 92 % 0.0 in /  0 mm
21:05 8.7 °F /  -12.9 °C 7.6 °F /  -13.6 °C 1014.1 in /  34337.4 hPa WSW 11.1 mph /  17.9 km/h 16.1 mph /  25.9 km/h 93 % 0.3 in /  7.62 mm
21:15 8.7 °F /  -12.9 °C 7.6 °F /  -13.6 °C 1013.8 in /  34327.3 hPa WSW 4.7 mph /  7.6 km/h 16.1 mph /  25.9 km/h 93 % 0.3 in /  7.62 mm
21:21 8.7 °F /  -12.9 °C 7.6 °F /  -13.6 °C 1013.8 in /  34327.3 hPa SW 13.0 mph /  20.9 km/h 19.3 mph /  31.1 km/h 93 % 0.5 in /  12.7 mm
21:27 8.7 °F /  -12.9 °C 7.6 °F /  -13.6 °C 1013.8 in /  34327.3 hPa SW 16.3 mph /  26.2 km/h 24.1 mph /  38.8 km/h 93 % 0.5 in /  12.7 mm
21:35 8.6 °F /  -13 °C 7.5 °F /  -13.6 °C 1013.8 in /  34327.3 hPa SW 11.1 mph /  17.9 km/h 22.5 mph /  36.2 km/h 93 % 0.5 in /  12.7 mm
21:43 8.6 °F /  -13 °C 7.7 °F /  -13.5 °C 1013.8 in /  34327.3 hPa SW 11.1 mph /  17.9 km/h 24.1 mph /  38.8 km/h 94 % 0.8 in /  20.32 mm
21:49 8.5 °F /  -13.1 °C 7.6 °F /  -13.6 °C 1014.1 in /  34337.4 hPa SW 11.1 mph /  17.9 km/h 24.1 mph /  38.8 km/h 94 % 1.0 in /  25.4 mm
21:55 8.5 °F /  -13.1 °C 7.6 °F /  -13.6 °C 1013.8 in /  34327.3 hPa WSW 13.0 mph /  20.9 km/h 20.9 mph /  33.6 km/h 94 % 1.3 in /  33.02 mm
22:03 8.4 °F /  -13.1 °C 7.5 °F /  -13.6 °C 1013.4 in /  34313.7 hPa SW 16.3 mph /  26.2 km/h 22.5 mph /  36.2 km/h 94 % 1.3 in /  33.02 mm
22:09 8.4 °F /  -13.1 °C 7.5 °F /  -13.6 °C 1013.4 in /  34313.7 hPa WSW 11.1 mph /  17.9 km/h 24.1 mph /  38.8 km/h 94 % 1.3 in /  33.02 mm
22:15 8.4 °F /  -13.1 °C 7.6 °F /  -13.6 °C 1013.1 in /  34303.6 hPa WSW 14.3 mph /  23 km/h 19.3 mph /  31.1 km/h 95 % 1.3 in /  33.02 mm
22:21 8.3 °F /  -13.2 °C 7.5 °F /  -13.6 °C 1013.1 in /  34303.6 hPa SW 17.7 mph /  28.5 km/h 17.7 mph /  28.5 km/h 95 % 1.3 in /  33.02 mm
22:27 8.3 °F /  -13.2 °C 7.5 °F /  -13.6 °C 1013.1 in /  34303.6 hPa SW 7.9 mph /  12.7 km/h 11.3 mph /  18.2 km/h 95 % 1.3 in /  33.02 mm
22:33 8.2 °F /  -13.2 °C 7.4 °F /  -13.7 °C 1012.8 in /  34293.4 hPa West 24.1 mph /  38.8 km/h 24.1 mph /  38.8 km/h 95 % 1.3 in /  33.02 mm
22:39 8.3 °F /  -13.2 °C 7.5 °F /  -13.6 °C 1013.1 in /  34303.6 hPa WSW 7.9 mph /  12.7 km/h 19.3 mph /  31.1 km/h 95 % 1.3 in /  33.02 mm
22:45 8.3 °F /  -13.2 °C 7.5 °F /  -13.6 °C 1012.8 in /  34293.4 hPa WSW 17.7 mph /  28.5 km/h 20.9 mph /  33.6 km/h 95 % 1.3 in /  33.02 mm
22:51 8.3 °F /  -13.2 °C 7.5 °F /  -13.6 °C 1012.8 in /  34293.4 hPa WSW 13.0 mph /  20.9 km/h 20.9 mph /  33.6 km/h 95 % 1.3 in /  33.02 mm
22:57 8.3 °F /  -13.2 °C 7.5 °F /  -13.6 °C 1012.8 in /  34293.4 hPa SW 13.0 mph /  20.9 km/h 20.9 mph /  33.6 km/h 95 % 1.3 in /  33.02 mm
23:03 8.4 °F /  -13.1 °C 7.6 °F /  -13.6 °C 1012.8 in /  34293.4 hPa SW 19.5 mph /  31.4 km/h 27.4 mph /  44.1 km/h 95 % 1.3 in /  33.02 mm
23:09 8.4 °F /  -13.1 °C 7.6 °F /  -13.6 °C 1012.8 in /  34293.4 hPa WSW 16.3 mph /  26.2 km/h 20.9 mph /  33.6 km/h 95 % 1.5 in /  38.1 mm
23:17 8.4 °F /  -13.1 °C 7.6 °F /  -13.6 °C 1012.8 in /  34293.4 hPa South 6.4 mph /  10.3 km/h 14.5 mph /  23.3 km/h 95 % 1.5 in /  38.1 mm
23:23 8.5 °F /  -13.1 °C 7.7 °F /  -13.5 °C 1012.4 in /  34279.9 hPa WSW 9.7 mph /  15.6 km/h 20.9 mph /  33.6 km/h 95 % 1.8 in /  45.72 mm
23:29 8.5 °F /  -13.1 °C 7.7 °F /  -13.5 °C 1012.4 in /  34279.9 hPa WSW 7.9 mph /  12.7 km/h 19.3 mph /  31.1 km/h 95 % 2.0 in /  50.8 mm
23:35 8.5 °F /  -13.1 °C 7.9 °F /  -13.4 °C 1012.1 in /  34269.7 hPa WSW 16.3 mph /  26.2 km/h 16.3 mph /  26.2 km/h 96 % 2.0 in /  50.8 mm
23:41 8.6 °F /  -13 °C 8.0 °F /  -13.3 °C 1012.1 in /  34269.7 hPa SW 25.9 mph /  41.7 km/h 25.9 mph /  41.7 km/h 96 % 2.0 in /  50.8 mm
23:47 8.6 °F /  -13 °C 8.0 °F /  -13.3 °C 1012.1 in /  34269.7 hPa SW 6.4 mph /  10.3 km/h 17.7 mph /  28.5 km/h 96 % 2.3 in /  58.42 mm
23:53 8.6 °F /  -13 °C 8.0 °F /  -13.3 °C 1011.7 in /  34256.2 hPa SW 13.0 mph /  20.9 km/h 17.7 mph /  28.5 km/h 96 % 2.3 in /  58.42 mm
23:55 8.6 °F /  -13 °C 8.0 °F /  -13.3 °C 1011.7 in /  34256.2 hPa SW 9.7 mph /  15.6 km/h 19.3 mph /  31.1 km/h 96 % 2.3 in /  58.42 mm
Meteo18
Compliments of Weather Underground - 4 mb

Script developed by  Jim McMurry - jmcmurry@mwt.net Adapted for the template by  Wim van der Kuil - Leuven-Template.eu

You find our weather info also at:

European Weather Network

Weather Underground

Equipment we use:

Weather-station
Davis Vue

Weather-program
Meteobridge

Weather-server
Raspberry PI 2 B+

Provider
1 and 1

Davis Vue

Meteobridge

Raspberry PI 2 B+

1 and 1